SL-16 DEB, 22616

Orbit data source: Space-Track

SL-16 DEB, 22616 is space debris in LEO originally from a launch on Fri, 26 Mar 1993 UTC launched from the Tyuratam Missile And Space Complex (TTMTR). Debris objects in space refer to the collection of defunct objects orbiting the Earth. Examples of debris include non-operational satellites, rocket bodies, and fragments generated from explosions, collisions, or faulty payload assembly.

Loading next visibility...
SL-16 DEB details
Identifier
22616, 1993-016AA
Orbit
LEO
Last TLE update16 hours ago
Origin
Flag of CISRVSN RF (CIS)
ManufacturerUnknown
MissionSpacecraft
Bus & MotorUnknown
MassUnknown
Launch date (UTC)
1993-03-26 (32 years ago)
Launch vehicleUnknown
Launch site
Tyuratam Missile And Space Complex (TTMTR)
Object type
Payload
Rocket body
Debris
Shape & HBRUnknown
Radar Cross SectionSmall (<0.1 m²)

Expand to show TLE details & history

TLE from 16 hours ago
0 SL-16 DEB
1 22616U 93016AA  25023.90184736  .00000465  00000-0  47720-3 0  9994
2 22616  70.9947 177.6511 0187508 181.2350 343.2928 13.73851003595137
Epoch: 2025-01-23T21:38Z
Definitive object data (Epoch: 2025-01-23T21:38:39.611Z)
Latitude15.19129°
Longitude-95.82451°
Altitude855.389 km
Speed7.493 km/s
True Right ascension23h 29m 15s
True Declination15° 06' 21"
Sunlit
Object was in daylight at TLE epoch
Visualization TLE readout
Latitude-70.55091°
Longitude-15.80078°
Altitude997.098 km
Speed7.36 km/s
Apparent Right ascension03h 41m 02s
Apparent Declination-56° 48' 20"
Sunlit
Object is in daylight
Visualization observer readout
Local Sidereal Time15:07:05
Azimuth195.35° SSW
Elevation-72.226°
Doppler factor1
Orbital elements
Apogee altitude1,121.784 km
Perigee altitude845.702 km
Semi-major axis7,361.88 km
Eccentricity0.0187508
Inclination70.9947°
RAAN177.6511°
Arg. of periapsis181.235°
True anomaly342.66094°
Mean anomaly343.2928°
Eccentric anomaly342.9783°
Mean motion3.43605 °/min
BSTAR0.0004772
Orbital period104.77 mins
Loading maneuver chart data...
Loading historical data...
Loading historical data...
Loading historical data...
Loading historical data...
Loading historical data...
Loading historical data...
Loading historical data...

SL-16 DEB Visibility forecast

Observer location: undefined°, undefined

Span
Click to sort rows by Start time (UTC) header in descending order
Start Az.
Max El. time (UTC)
Max El. Az.
Max El.
End time (UTC)
End Az.
9 mins2025-01-24 20:08:00.280Z0.95° NNE2025-01-24 20:12:00.280Z48.981° ENE25.491°2025-01-24 20:17:00.280Z112.796° SE
8 mins2025-01-24 21:56:00.280Z314.364° NW2025-01-24 22:00:00.280Z246.094° WSW33.273°2025-01-24 22:04:00.280Z190.472° SSW
6 mins2025-01-25 09:41:00.280Z123.627° SE2025-01-25 09:44:00.280Z95.395° ESE15.587°2025-01-25 09:47:00.280Z67.342° ENE
12 mins2025-01-25 11:25:00.280Z204.781° SW2025-01-25 11:30:00.280Z242.332° WSW44.637°2025-01-25 11:37:00.280Z22.002° NNE
6 mins2025-01-25 13:16:00.280Z286.853° WNW2025-01-25 13:18:00.280Z306.568° NW16.333°2025-01-25 13:22:00.280Z346.06° N
|